Regional Weather Roundup
Issued by NWS

Home | Current Version | Previous Version | Graphics & Text | Print | Product List | Glossary On
Versions: 1 2 3 4 5 6 7 8 9 10 11 12 13 14 15 16 17 18 19 20 21 22 23 24 25 26 27 28 29 30 31 32 33 34 35 36 37 38 39 40 41 42 43 44 45 46 47 48 49 50
472
ASUS43 KLSX 191057
RWRMO

WEATHER SUMMARY FOR MISSOURI
NATIONAL WEATHER SERVICE SPRINGFIELD MO
500 AM CST SUN FEB 19 2017

NOTE: "FAIR" INDICATES FEW OR NO CLOUDS BELOW 12,000 FEET WITH NO
       SIGNIFICANT WEATHER AND/OR OBSTRUCTIONS TO VISIBILITY.
       CURRENT SKY AND/OR WEATHER CONDITIONS ARE NOT AVAILABLE FOR
       CHILLICOTHE AND FARMINGTON.

MOZ001>031-035>038-043-044-053-054-191200-
...NORTHERN AND WESTERN MISSOURI...

CITY           SKY/WX    TMP DP  RH WIND       PRES   REMARKS
KANSAS CTY INT PTCLDY    46  46 100 S8        29.93R FOG
LEE`S SUMMIT   CLEAR     51  49  92 S8        29.94R
ST JOSEPH      PTCLDY    40  38  93 CALM      29.93R
CHILLICOTHE      N/A     38  35  89 CALM      29.94R

$$
MOZ066>068-077>081-088>096-101>105-191200-
...SOUTHWEST MISSOURI...

CITY           SKY/WX    TMP DP  RH WIND       PRES   REMARKS
SPRINGFIELD    CLEAR     45  43  93 S3        29.97R FOG
JOPLIN         CLEAR     44  44 100 E7        29.95S FOG

$$
MOZ032>034-039>042-045>050-055>058-069>072-191200-
...CENTRAL MISSOURI...

CITY           SKY/WX    TMP DP  RH WIND       PRES   REMARKS
COLUMBIA       NOT AVBL
JEFFERSON CITY FOG       37  37 100 SE5       29.97R VSB 1/2
ROLLA          FOG       44  44 100 S6        29.96R VSB 1/4
SEDALIA        CLEAR     47  45  93 S5        29.98R FOG
WHITEMAN AFB   FOG       41  41 100 SW8       29.95R VSB 1/4
WARRENSBURG    FOG       41  41 100 S5        29.97R VSB 1/4

$$
MOZ051-052-059>065-191200-
...EAST CENTRAL MISSOURI...

CITY           SKY/WX    TMP DP  RH WIND       PRES   REMARKS
ST LOUIS INTL  CLEAR     44  41  89 CALM      29.98R

$$
MOZ072>076-082>087-097>100-106>115-191200-
...SOUTH CENTRAL AND SOUTHEAST MISSOURI...

CITY           SKY/WX    TMP DP  RH WIND       PRES   REMARKS
CAPE GIRARDEAU FOG       50  49  96 SE5       29.98S VSB 1/4
POPLAR BLUFF   FOG       47  47 100 CALM      29.99R VSB 1/4
WEST PLAINS    FOG       40  38  93 SW6       30.00R VSB 3/4

$$



USA.gov is the U.S. government's official web portal to all federal, state and local government web resources and services.